Time,TemperatureF,DewpointF,PressureIn,WindDirection,WindDirectionDegrees,WindSpeedMPH,WindSpeedGustMPH,Humidity,HourlyPrecipIn,Conditions,Clouds,dailyrainin,SoftwareType,DateUTC
2013-01-20 00:04:00,48.0,24.0,29.88,SW,235,7.0,17.0,38,0.00,,,0.00,,2013-01-20 05:04:00,
2013-01-20 00:12:00,48.0,24.0,29.88,SW,235,7.0,17.0,38,0.00,,,0.00,,2013-01-20 05:12:00,
2013-01-20 00:22:00,48.0,24.0,29.88,SW,232,6.0,20.0,39,0.00,,,0.00,,2013-01-20 05:22:00,
2013-01-20 00:33:00,47.0,24.0,29.87,SW,234,7.0,19.0,40,0.00,,,0.00,,2013-01-20 05:33:00,
2013-01-20 00:43:00,47.0,24.0,29.87,SW,234,7.0,19.0,40,0.00,,,0.00,,2013-01-20 05:43:00,
2013-01-20 00:53:00,47.0,25.0,29.87,SW,217,6.0,16.0,41,0.00,,,0.00,,2013-01-20 05:53:00,
2013-01-20 01:02:00,47.0,25.0,29.87,SW,222,7.0,14.0,42,0.00,,,0.00,,2013-01-20 06:02:00,
2013-01-20 01:12:00,47.0,25.0,29.87,SW,222,7.0,14.0,42,0.00,,,0.00,,2013-01-20 06:12:00,
2013-01-20 01:22:00,47.0,25.0,29.86,SW,232,6.0,17.0,42,0.00,,,0.00,,2013-01-20 06:22:00,
2013-01-20 01:33:00,46.0,25.0,29.86,SW,234,6.0,17.0,43,0.00,,,0.00,,2013-01-20 06:33:00,
2013-01-20 01:43:00,46.0,25.0,29.86,SW,234,6.0,17.0,43,0.00,,,0.00,,2013-01-20 06:43:00,
2013-01-20 01:53:00,46.0,25.0,29.86,SW,225,8.0,14.0,44,0.00,,,0.00,,2013-01-20 06:53:00,
2013-01-20 02:02:00,46.0,26.0,29.85,SW,217,7.0,17.0,45,0.00,,,0.00,,2013-01-20 07:02:00,
2013-01-20 02:12:00,46.0,26.0,29.85,SW,217,7.0,17.0,45,0.00,,,0.00,,2013-01-20 07:12:00,
2013-01-20 02:22:00,46.0,26.0,29.86,SW,225,9.0,13.0,46,0.00,,,0.00,,2013-01-20 07:22:00,
2013-01-20 02:32:00,46.0,26.0,29.85,SE,146,6.0,17.0,46,0.00,,,0.00,,2013-01-20 07:32:00,
2013-01-20 02:42:00,46.0,26.0,29.85,SE,146,6.0,17.0,46,0.00,,,0.00,,2013-01-20 07:42:00,
2013-01-20 02:52:00,46.0,27.0,29.85,WSW,242,8.0,23.0,47,0.00,,,0.00,,2013-01-20 07:52:00,
2013-01-20 03:02:00,46.0,27.0,29.85,SW,225,7.0,18.0,48,0.00,,,0.00,,2013-01-20 08:02:00,
2013-01-20 03:12:00,46.0,27.0,29.85,SW,225,7.0,18.0,48,0.00,,,0.00,,2013-01-20 08:12:00,
2013-01-20 03:22:00,45.0,27.0,29.85,SW,236,7.0,16.0,49,0.00,,,0.00,,2013-01-20 08:22:00,
2013-01-20 03:32:00,45.0,27.0,29.85,West,269,7.0,14.0,50,0.00,,,0.00,,2013-01-20 08:32:00,
2013-01-20 03:42:00,45.0,27.0,29.85,West,269,7.0,14.0,50,0.00,,,0.00,,2013-01-20 08:42:00,
2013-01-20 03:53:00,45.0,28.0,29.84,WSW,257,6.0,11.0,51,0.00,,,0.00,,2013-01-20 08:53:00,
2013-01-20 04:02:00,45.0,28.0,29.84,West,261,8.0,16.0,52,0.00,,,0.00,,2013-01-20 09:02:00,
2013-01-20 04:12:00,45.0,28.0,29.84,West,261,8.0,16.0,52,0.00,,,0.00,,2013-01-20 09:12:00,
2013-01-20 04:22:00,45.0,28.0,29.84,WSW,240,7.0,16.0,52,0.00,,,0.00,,2013-01-20 09:22:00,
2013-01-20 04:33:00,45.0,29.0,29.83,SW,232,7.0,15.0,53,0.00,,,0.00,,2013-01-20 09:33:00,
2013-01-20 04:42:00,45.0,29.0,29.83,SW,232,7.0,15.0,53,0.00,,,0.00,,2013-01-20 09:42:00,
2013-01-20 04:53:00,45.0,29.0,29.83,WSW,252,8.0,17.0,54,0.00,,,0.00,,2013-01-20 09:53:00,
2013-01-20 05:02:00,45.0,30.0,29.83,South,180,7.0,15.0,55,0.00,,,0.00,,2013-01-20 10:02:00,
2013-01-20 05:12:00,45.0,30.0,29.83,South,180,7.0,15.0,55,0.00,,,0.00,,2013-01-20 10:12:00,
2013-01-20 05:22:00,44.0,29.0,29.84,WSW,242,8.0,16.0,56,0.00,,,0.00,,2013-01-20 10:22:00,
2013-01-20 05:32:00,44.0,29.0,29.84,West,260,8.0,15.0,56,0.00,,,0.00,,2013-01-20 10:32:00,
2013-01-20 05:42:00,44.0,29.0,29.84,West,260,8.0,15.0,56,0.00,,,0.00,,2013-01-20 10:42:00,
2013-01-20 05:53:00,45.0,31.0,29.85,West,260,8.0,20.0,57,0.00,,,0.00,,2013-01-20 10:53:00,
2013-01-20 06:02:00,45.0,31.0,29.85,WSW,252,8.0,21.0,57,0.00,,,0.00,,2013-01-20 11:02:00,
2013-01-20 06:12:00,45.0,31.0,29.85,WSW,252,8.0,21.0,57,0.00,,,0.00,,2013-01-20 11:12:00,
2013-01-20 06:22:00,45.0,31.0,29.86,WNW,302,9.0,20.0,57,0.00,,,0.00,,2013-01-20 11:22:00,
2013-01-20 06:33:00,45.0,31.0,29.85,SW,231,7.0,14.0,58,0.00,,,0.00,,2013-01-20 11:33:00,
2013-01-20 06:43:00,45.0,31.0,29.85,SW,231,7.0,14.0,58,0.00,,,0.00,,2013-01-20 11:43:00,
2013-01-20 06:54:00,45.0,31.0,29.85,WSW,250,7.0,18.0,58,0.00,,,0.00,,2013-01-20 11:54:00,
2013-01-20 07:03:00,45.0,31.0,29.86,SW,234,7.0,21.0,58,0.00,,,0.00,,2013-01-20 12:03:00,
2013-01-20 07:12:00,45.0,31.0,29.86,SW,234,7.0,21.0,58,0.00,,,0.00,,2013-01-20 12:12:00,
2013-01-20 07:23:00,44.0,31.0,29.87,West,266,5.0,13.0,59,0.00,,,0.00,,2013-01-20 12:23:00,
2013-01-20 07:33:00,44.0,31.0,29.88,West,277,8.0,14.0,60,0.00,,,0.00,,2013-01-20 12:33:00,
2013-01-20 07:43:00,44.0,31.0,29.88,West,277,8.0,14.0,60,0.00,,,0.00,,2013-01-20 12:43:00,
2013-01-20 07:53:00,44.0,31.0,29.89,WSW,254,6.0,17.0,60,0.00,,,0.00,,2013-01-20 12:53:00,
2013-01-20 08:03:00,43.0,30.0,29.90,West,267,7.0,14.0,60,0.00,,,0.00,,2013-01-20 13:03:00,
2013-01-20 08:12:00,43.0,30.0,29.90,West,267,7.0,14.0,60,0.00,,,0.00,,2013-01-20 13:12:00,
2013-01-20 08:23:00,43.0,30.0,29.91,SW,229,6.0,18.0,59,0.00,,,0.00,,2013-01-20 13:23:00,
2013-01-20 08:33:00,42.0,26.0,29.92,WSW,258,9.0,18.0,53,0.00,,,0.00,,2013-01-20 13:33:00,
2013-01-20 08:43:00,42.0,26.0,29.92,WSW,258,9.0,18.0,53,0.00,,,0.00,,2013-01-20 13:43:00,
2013-01-20 08:53:00,41.0,25.0,29.93,West,261,8.0,14.0,52,0.00,,,0.00,,2013-01-20 13:53:00,
2013-01-20 09:02:00,41.0,24.0,29.94,WSW,238,5.0,12.0,51,0.00,,,0.00,,2013-01-20 14:02:00,
2013-01-20 09:12:00,41.0,24.0,29.94,WSW,238,5.0,12.0,51,0.00,,,0.00,,2013-01-20 14:12:00,
2013-01-20 09:23:00,41.0,24.0,29.96,West,271,8.0,15.0,51,0.00,,,0.00,,2013-01-20 14:23:00,
2013-01-20 09:33:00,41.0,24.0,29.96,SW,216,10.0,17.0,50,0.00,,,0.00,,2013-01-20 14:33:00,
2013-01-20 09:43:00,41.0,24.0,29.96,SW,216,10.0,17.0,50,0.00,,,0.00,,2013-01-20 14:43:00,
2013-01-20 09:53:00,41.0,24.0,29.96,SW,216,10.0,17.0,50,0.00,,,0.00,,2013-01-20 14:53:00,
2013-01-20 10:03:00,41.0,24.0,29.96,SW,216,10.0,17.0,50,0.00,,,0.00,,2013-01-20 15:03:00,
2013-01-20 10:12:00,41.0,24.0,29.96,SW,216,10.0,17.0,50,0.00,,,0.00,,2013-01-20 15:12:00,
2013-01-20 10:23:00,40.0,22.0,29.99,WSW,249,12.0,22.0,48,0.00,,,0.00,,2013-01-20 15:23:00,
2013-01-20 10:33:00,40.0,23.0,30.00,North,355,7.0,15.0,50,0.00,,,0.00,,2013-01-20 15:33:00,
2013-01-20 10:43:00,40.0,23.0,30.00,North,355,7.0,15.0,50,0.00,,,0.00,,2013-01-20 15:43:00,
2013-01-20 10:53:00,40.0,22.0,30.01,WSW,253,8.0,17.0,49,0.00,,,0.00,,2013-01-20 15:53:00,
2013-01-20 11:03:00,40.0,22.0,30.02,WNW,283,7.0,22.0,49,0.00,,,0.00,,2013-01-20 16:03:00,
2013-01-20 11:12:00,40.0,22.0,30.02,WNW,283,7.0,22.0,49,0.00,,,0.00,,2013-01-20 16:12:00,
2013-01-20 11:23:00,38.0,19.0,30.03,WSW,251,8.0,17.0,46,0.00,,,0.00,,2013-01-20 16:23:00,
2013-01-20 11:33:00,39.0,17.0,30.04,WNW,300,10.0,21.0,40,0.00,,,0.00,,2013-01-20 16:33:00,
2013-01-20 11:43:00,39.0,17.0,30.04,WNW,300,10.0,21.0,40,0.00,,,0.00,,2013-01-20 16:43:00,
2013-01-20 11:53:00,39.0,18.0,30.03,WSW,248,9.0,21.0,43,0.00,,,0.00,,2013-01-20 16:53:00,
2013-01-20 12:03:00,38.0,16.0,30.03,WSW,258,10.0,19.0,41,0.00,,,0.00,,2013-01-20 17:03:00,
2013-01-20 12:13:00,38.0,16.0,30.03,WSW,258,10.0,19.0,41,0.00,,,0.00,,2013-01-20 17:13:00,
2013-01-20 12:22:00,38.0,18.0,30.03,West,261,7.0,24.0,43,0.00,,,0.00,,2013-01-20 17:22:00,
2013-01-20 12:33:00,39.0,18.0,30.03,WSW,241,9.0,19.0,42,0.00,,,0.00,,2013-01-20 17:33:00,
2013-01-20 12:42:00,39.0,18.0,30.03,WSW,241,9.0,19.0,42,0.00,,,0.00,,2013-01-20 17:42:00,
2013-01-20 12:53:00,38.0,17.0,30.04,WNW,295,10.0,19.0,42,0.00,,,0.00,,2013-01-20 17:53:00,
2013-01-20 13:03:00,38.0,18.0,30.04,WSW,256,7.0,16.0,44,0.00,,,0.00,,2013-01-20 18:03:00,
2013-01-20 13:13:00,38.0,18.0,30.04,West,279,7.0,18.0,44,0.00,,,0.00,,2013-01-20 18:13:00,
2013-01-20 13:23:00,38.0,18.0,30.04,West,279,7.0,18.0,44,0.00,,,0.00,,2013-01-20 18:23:00,
2013-01-20 13:33:00,37.0,18.0,30.04,West,281,6.0,16.0,45,0.00,,,0.00,,2013-01-20 18:33:00,
2013-01-20 13:43:00,37.0,18.0,30.04,West,281,6.0,16.0,45,0.00,,,0.00,,2013-01-20 18:43:00,
2013-01-20 13:53:00,38.0,16.0,30.04,WSW,244,8.0,12.0,41,0.00,,,0.00,,2013-01-20 18:53:00,
2013-01-20 14:03:00,37.0,16.0,30.05,WNW,294,8.0,18.0,41,0.00,,,0.00,,2013-01-20 19:03:00,
2013-01-20 14:12:00,37.0,16.0,30.05,WNW,294,8.0,18.0,41,0.00,,,0.00,,2013-01-20 19:12:00,
2013-01-20 14:22:00,37.0,15.0,30.06,WSW,251,9.0,19.0,40,0.00,,,0.00,,2013-01-20 19:22:00,
2013-01-20 14:33:00,36.0,16.0,30.06,WSW,245,8.0,15.0,43,0.00,,,0.00,,2013-01-20 19:33:00,
2013-01-20 14:43:00,36.0,16.0,30.06,WSW,245,8.0,15.0,43,0.00,,,0.00,,2013-01-20 19:43:00,
2013-01-20 14:53:00,36.0,16.0,30.07,West,261,7.0,12.0,44,0.00,,,0.00,,2013-01-20 19:53:00,
2013-01-20 15:03:00,36.0,17.0,30.07,SSW,205,7.0,11.0,45,0.00,,,0.00,,2013-01-20 20:03:00,
2013-01-20 15:12:00,36.0,17.0,30.07,SSW,205,7.0,11.0,45,0.00,,,0.00,,2013-01-20 20:12:00,
2013-01-20 15:23:00,36.0,16.0,30.07,NNW,335,6.0,13.0,44,0.00,,,0.00,,2013-01-20 20:23:00,
2013-01-20 15:33:00,35.0,14.0,30.08,WNW,287,8.0,17.0,42,0.00,,,0.00,,2013-01-20 20:33:00,
2013-01-20 15:42:00,35.0,14.0,30.08,WNW,287,8.0,17.0,42,0.00,,,0.00,,2013-01-20 20:42:00,
2013-01-20 15:53:00,35.0,15.0,30.08,West,279,8.0,18.0,43,0.00,,,0.00,,2013-01-20 20:53:00,
2013-01-20 16:03:00,34.0,14.0,30.08,WSW,242,5.0,13.0,43,0.00,,,0.00,,2013-01-20 21:03:00,
2013-01-20 16:13:00,34.0,14.0,30.08,WSW,242,5.0,13.0,43,0.00,,,0.00,,2013-01-20 21:13:00,
2013-01-20 16:23:00,33.0,14.0,30.09,WNW,288,4.0,12.0,45,0.00,,,0.00,,2013-01-20 21:23:00,
2013-01-20 16:33:00,33.0,14.0,30.08,WSW,241,5.0,9.0,45,0.00,,,0.00,,2013-01-20 21:33:00,
2013-01-20 16:43:00,33.0,14.0,30.08,WSW,241,5.0,9.0,45,0.00,,,0.00,,2013-01-20 21:43:00,
2013-01-20 16:53:00,32.0,14.0,30.09,WNW,284,6.0,9.0,46,0.00,,,0.00,,2013-01-20 21:53:00,
2013-01-20 17:03:00,32.0,13.0,30.09,WNW,292,3.0,10.0,45,0.00,,,0.00,,2013-01-20 22:03:00,
2013-01-20 17:13:00,32.0,13.0,30.09,WNW,292,3.0,10.0,45,0.00,,,0.00,,2013-01-20 22:13:00,
2013-01-20 17:23:00,32.0,13.0,30.10,WNW,288,4.0,8.0,45,0.00,,,0.00,,2013-01-20 22:23:00,
2013-01-20 17:33:00,31.0,13.0,30.10,West,279,4.0,7.0,47,0.00,,,0.00,,2013-01-20 22:33:00,
2013-01-20 17:43:00,31.0,13.0,30.10,West,279,4.0,7.0,47,0.00,,,0.00,,2013-01-20 22:43:00,
2013-01-20 17:53:00,30.0,13.0,30.11,WNW,295,3.0,7.0,49,0.00,,,0.00,,2013-01-20 22:53:00,
2013-01-20 18:03:00,30.0,14.0,30.12,WNW,298,3.0,9.0,50,0.00,,,0.00,,2013-01-20 23:03:00,
2013-01-20 18:13:00,30.0,14.0,30.12,WNW,298,3.0,9.0,50,0.00,,,0.00,,2013-01-20 23:13:00,
2013-01-20 18:23:00,29.0,13.0,30.13,NW,304,2.0,4.0,51,0.00,,,0.00,,2013-01-20 23:23:00,
2013-01-20 18:33:00,29.0,14.0,30.13,WNW,297,1.0,8.0,52,0.00,,,0.00,,2013-01-20 23:33:00,
2013-01-20 18:43:00,29.0,14.0,30.13,WNW,297,1.0,8.0,52,0.00,,,0.00,,2013-01-20 23:43:00,
2013-01-20 18:53:00,29.0,14.0,30.14,NW,304,1.0,5.0,53,0.00,,,0.00,,2013-01-20 23:53:00,
2013-01-20 19:03:00,28.0,14.0,30.14,West,268,1.0,8.0,54,0.00,,,0.00,,2013-01-21 00:03:00,
2013-01-20 19:13:00,28.0,14.0,30.14,West,268,1.0,8.0,54,0.00,,,0.00,,2013-01-21 00:13:00,
2013-01-20 19:23:00,28.0,14.0,30.14,NW,325,2.0,6.0,56,0.00,,,0.00,,2013-01-21 00:23:00,
2013-01-20 19:33:00,28.0,14.0,30.13,West,273,2.0,5.0,55,0.00,,,0.00,,2013-01-21 00:33:00,
2013-01-20 19:43:00,28.0,14.0,30.13,West,273,2.0,5.0,55,0.00,,,0.00,,2013-01-21 00:43:00,
2013-01-20 19:54:00,28.0,14.0,30.14,West,281,3.0,10.0,55,0.00,,,0.00,,2013-01-21 00:54:00,
2013-01-20 20:03:00,27.0,13.0,30.15,WSW,240,2.0,6.0,55,0.00,,,0.00,,2013-01-21 01:03:00,
2013-01-20 20:13:00,27.0,13.0,30.15,WSW,240,2.0,6.0,55,0.00,,,0.00,,2013-01-21 01:13:00,
2013-01-20 20:23:00,27.0,13.0,30.15,WNW,298,4.0,7.0,56,0.00,,,0.00,,2013-01-21 01:23:00,
2013-01-20 20:33:00,27.0,14.0,30.15,West,269,2.0,7.0,57,0.00,,,0.00,,2013-01-21 01:33:00,
2013-01-20 20:43:00,27.0,14.0,30.15,West,269,2.0,7.0,57,0.00,,,0.00,,2013-01-21 01:43:00,
2013-01-20 20:53:00,27.0,14.0,30.15,WNW,293,3.0,6.0,58,0.00,,,0.00,,2013-01-21 01:53:00,
2013-01-20 21:03:00,26.0,13.0,30.15,West,277,3.0,6.0,58,0.00,,,0.00,,2013-01-21 02:03:00,
2013-01-20 21:12:00,26.0,13.0,30.15,West,277,3.0,6.0,58,0.00,,,0.00,,2013-01-21 02:12:00,
2013-01-20 21:23:00,26.0,14.0,30.15,NW,305,0.0,4.0,59,0.00,,,0.00,,2013-01-21 02:23:00,
2013-01-20 21:33:00,26.0,14.0,30.15,WNW,290,1.0,3.0,61,0.00,,,0.00,,2013-01-21 02:33:00,
2013-01-20 21:43:00,26.0,14.0,30.15,WNW,290,1.0,3.0,61,0.00,,,0.00,,2013-01-21 02:43:00,
2013-01-20 21:53:00,25.0,14.0,30.15,WNW,286,1.0,4.0,63,0.00,,,0.00,,2013-01-21 02:53:00,
2013-01-20 22:03:00,25.0,14.0,30.15,NW,309,1.0,5.0,63,0.00,,,0.00,,2013-01-21 03:03:00,
2013-01-20 22:13:00,25.0,14.0,30.15,NW,309,1.0,5.0,63,0.00,,,0.00,,2013-01-21 03:13:00,
2013-01-20 22:23:00,25.0,14.0,30.16,NW,304,1.0,3.0,63,0.00,,,0.00,,2013-01-21 03:23:00,
2013-01-20 22:33:00,24.0,13.0,30.15,WNW,299,2.0,4.0,63,0.00,,,0.00,,2013-01-21 03:33:00,
2013-01-20 22:43:00,24.0,13.0,30.15,WNW,299,2.0,4.0,63,0.00,,,0.00,,2013-01-21 03:43:00,
2013-01-20 22:54:00,25.0,14.0,30.15,West,278,1.0,4.0,63,0.00,,,0.00,,2013-01-21 03:54:00,
2013-01-20 23:03:00,25.0,14.0,30.15,West,277,2.0,5.0,63,0.00,,,0.00,,2013-01-21 04:03:00,
2013-01-20 23:13:00,25.0,14.0,30.15,West,277,2.0,5.0,63,0.00,,,0.00,,2013-01-21 04:13:00,
2013-01-20 23:23:00,25.0,15.0,30.15,WSW,241,2.0,4.0,64,0.00,,,0.00,,2013-01-21 04:23:00,
2013-01-20 23:33:00,25.0,15.0,30.14,WSW,257,2.0,3.0,64,0.00,,,0.00,,2013-01-21 04:33:00,
2013-01-20 23:43:00,25.0,15.0,30.14,WSW,257,2.0,3.0,64,0.00,,,0.00,,2013-01-21 04:43:00,
2013-01-20 23:53:00,25.0,15.0,30.14,WSW,255,2.0,4.0,64,0.00,,,0.00,,2013-01-21 04:53:00,